{"data":{"norad_id":53672,"intl_designator":"2022-105AA","name":"STARLINK-4428","alt_names":[],"object_type":"PAYLOAD","status":"ACTIVE","operator":null,"country":"US","launch_date":"2022-08-31","launch_site_code":"AFWTR","launch_vehicle":null,"mission":null,"orbit_class":"UNKNOWN","rcs_meters":null,"size_class":null,"mass_kg":null,"dimensions":null,"purposes":["comms"],"wikipedia_slug":null,"has_3d_model":false,"image_url":null,"decayed_at":null,"tle_current":{"epoch":"2026-05-25T03:12:55.342368Z","epoch_age_seconds":63533,"freshness":"FRESH","line1":"1 53672U 22105AA  26145.13397387 -.00000665  00000+0 -42005-4 0  9995","line2":"2 53672  97.4502  25.1002 0002436  81.3253 278.8250 15.05655137204735","mean_motion":15.05655137,"eccentricity":0.0002436,"inclination_deg":97.4502,"raan_deg":25.1002,"arg_perigee_deg":81.3253,"mean_anomaly_deg":278.825,"bstar":-4.2005e-5,"rev_number":20473,"period_min":95.639430611527,"perigee_km":547.80782559383,"apogee_km":551.18296809757,"semimajor_km":6927.6323968457,"source":"CELESTRAK","updated_at":"2026-05-25T13:38:17.489160Z"}}}